Find INTELSAT 506

NORAD ID: 14077 Int'l Des: 1983-047 Owner: INTEL Country: I-INT operational
HEOCIRCULAR

Live-Position

3D-Globus wird geladen...

Über INTELSAT 506

Beschreibung wird geladen...

Nächste Überflüge

Passes for default location (London). Set your location on the main map for personalized predictions.

Höhenverlauf

Loading altitude history...

Zweizeiliger Elementsatz

1 14077U 83047A 26121.07291071 .00000017 00000-0 00000+0 0 9997
2 14077 12.5104 333.9503 0039060 356.0912 353.8505 0.99156767123616
Epoch: 1. Mai 2026 • Age: 10 hours

Aktueller Status

Höhe 36243.4 km
Geschwindigkeit 3.05 km/s
Subsatellitenpunkt 6.96°N, 77.76°E
Startdatum 19. Mai 1983
Alter 42.9 years
Typ communications

Technische Details

Klassifizierung Payload
Masse 1004.00 kg
Trockenmasse 775.00 kg
Gesamtmasse 1928.00 kg
Länge 6.40 m
Durchmesser 2.00 m
Spannweite 15.60 m
Form Box + 2 Pan
Hersteller FORDA
Bus-Typ FS INTELSAT 5
Phasenstatus Renamed
Besitzer/Staat INTEL/I-INT

Most Searched